Temp
-5 -5 -6 -6 -6 -6 -6 -6 -6 -6 -6 -6 -6 -5 -6 -6 -5 -5 -6 -6 -6 -6 -6 -6 -6 -6 -6 -6 -6 -6 -6 -6 -6 -6 -6 -6 -6 -6 -6 -6 -6 -6 -6 -6 -6 -6 -7 -7 -7 -7 -7 -7 -7 -7 -7 -7 -7 -7 -7 -7 -7 -7 -7
-5 -5 -5 -6 -6 -6 -6 -6 -6 -6 -6 -6 -5 -5 -5 -6 -5 -5 -5 -6 -6 -6 -6 -6 -6 -6 -6 -6 -6 -6 -6 -6 -6 -6 -6 -6 -6 -6 -6 -6 -6 -6 -6 -6 -7 -7 -7 -7 -7 -7 -7 -7 -7 -7 -7 -7 -7 -7 -7 -7 -7 -7 -7
-5 -5 -5 -6 -6 -6 -6 -6 -6 -6 -6 -6 -6 -5 -6 -6 -6 -5 -5 -5 -6 -6 -6 -6 -6 -6 -6 -6 -6 -6 -6 -6 -6 -6 -6 -6 -6 -6 -6 -6 -6 -6 -6 -6 -7 -7 -7 -7 -7 -7 -7 -7 -7 -7 -7 -7 -7 -7 -6 -6 -7 -7 -7
-5 -5 -5 -6 -6 -6 -6 -6 -6 -6 -6 -6 -6 -6 -6 -6 -6 -5 -5 -5 -5 -6 -6 -6 -6 -6 -6 -6 -6 -6 -6 -6 -6 -6 -6 -6 -6 -6 -6 -6 -6 -6 -6 -6 -7 -7 -7 -7 -7 -7 -7 -7 -7 -7 -7 -7 -7 -7 -6 -6 -6 -6 -6
-4 -4 -5 -6 -6 -6 -6 -6 -6 -6 -6 -6 -7 -6 -6 -6 -6 -5 -5 -5 -5 -5 -6 -6 -6 -6 -6 -6 -6 -6 -6 -6 -6 -6 -6 -6 -6 -6 -6 -6 -6 -6 -6 -6 -6 -6 -7 -7 -7 -7 -7 -7 -7 -7 -7 -7 -6 -6 -6 -6 -6 -6 -6
-5 -5 -5 -6 -6 -6 -6 -6 -6 -6 -6 -6 -7 -7 -6 -6 -6 -6 -6 -5 -5 -5 -6 -6 -6 -6 -6 -6 -6 -6 -6 -6 -6 -6 -6 -6 -6 -6 -6 -7 -7 -7 -7 -6 -6 -7 -7 -7 -7 -7 -6 -6 -6 -6 -7 -7 -6 -6 -6 -6 -6 -6 -6
-5 -5 -5 -6 -6 -6 -6 -6 -6 -6 -6 -6 -7 -7 -6 -6 -6 -6 -6 -6 -6 -6 -6 -6 -6 -6 -6 -6 -6 -6 -6 -6 -6 -6 -6 -6 -6 -6 -6 -7 -7 -7 -7 -7 -7 -7 -7 -7 -7 -7 -6 -6 -6 -6 -6 -7 -6 -6 -6 -6 -6 -6 -6
-6 -6 -6 -6 -6 -6 -7 -6 -6 -6 -6 -6 -7 -7 -7 -6 -6 -6 -6 -7 -6 -6 -6 -6 -6 -6 -6 -6 -6 -6 -6 -6 -6 -6 -6 -6 -6 -6 -6 -6 -7 -7 -7 -7 -7 -7 -7 -7 -7 -7 -7 -6 -6 -6 -6 -6 -6 -6 -7 -7 -7 -6 -6
-6 -6 -6 -6 -6 -6 -6 -6 -7 -6 -6 -6 -6 -7 -7 -7 -6 -6 -6 -7 -7 -7 -7 -7 -6 -6 -6 -6 -6 -6 -6 -6 -6 -6 -6 -6 -6 -6 -6 -6 -6 -6 -7 -7 -7 -7 -7 -7 -7 -7 -6 -6 -6 -6 -6 -6 -6 -6 -6 -6 -7 -7 -7
-5 -5 -5 -5 -5 -5 -5 -5 -6 -6 -6 -6 -6 -6 -7 -7 -7 -7 -7 -7 -7 -7 -7 -7 -6 -6 -6 -6 -6 -6 -6 -6 -6 -6 -6 -6 -6 -6 -6 -6 -6 -6 -6 -6 -7 -7 -7 -7 -7 -7 -6 -6 -6 -6 -6 -6 -6 -6 -6 -6 -6 -7 -7
-6 -6 -6 -5 -5 -6 -5 -5 -5 -5 -6 -6 -6 -6 -6 -6 -7 -7 -7 -7 -7 -7 -7 -7 -6 -6 -6 -6 -6 -6 -6 -6 -6 -6 -6 -6 -6 -6 -6 -6 -6 -6 -6 -6 -6 -6 -7 -7 -7 -7 -7 -6 -6 -6 -6 -6 -6 -6 -6 -6 -7 -7 -7
-7 -7 -6 -6 -6 -6 -6 -6 -6 -6 -6 -6 -6 -6 -6 -6 -6 -6 -6 -6 -6 -7 -7 -7 -6 -6 -6 -6 -6 -6 -6 -6 -6 -6 -6 -6 -6 -6 -6 -6 -6 -6 -6 -6 -6 -6 -6 -6 -6 -6 -6 -7 -7 -7 -7 -6 -6 -6 -6 -7 -7 -7 -7
-7 -7 -7 -7 -6 -6 -6 -6 -6 -6 -6 -6 -6 -6 -6 -6 -6 -6 -6 -6 -6 -6 -6 -6 -7 -6 -6 -6 -6 -6 -6 -6 -6 -6 -6 -6 -6 -6 -6 -6 -6 -6 -6 -6 -6 -6 -6 -6 -6 -6 -6 -6 -7 -7 -7 -7 -7 -7 -7 -7 -7 -7 -7
-8 -7 -7 -7 -7 -7 -6 -6 -6 -6 -6 -6 -6 -6 -6 -6 -6 -7 -6 -6 -6 -6 -6 -6 -7 -7 -6 -6 -6 -6 -6 -7 -7 -6 -6 -6 -6 -6 -6 -6 -6 -6 -6 -6 -6 -6 -6 -6 -6 -6 -6 -6 -7 -7 -7 -7 -7 -7 -7 -7 -7 -7 -7
-8 -8 -7 -7 -7 -7 -7 -7 -7 -6 -6 -7 -6 -6 -6 -6 -6 -6 -6 -6 -6 -6 -6 -6 -7 -7 -7 -6 -6 -6 -6 -7 -7 -7 -7 -7 -7 -6 -6 -6 -6 -6 -6 -6 -6 -6 -6 -6 -6 -6 -6 -7 -7 -7 -7 -7 -7 -7 -7 -7 -6 -6 -7
-9 -8 -8 -8 -8 -7 -7 -7 -7 -7 -7 -7 -6 -6 -6 -6 -6 -6 -6 -6 -6 -6 -6 -6 -7 -7 -7 -7 -7 -7 -7 -7 -7 -7 -6 -6 -6 -6 -6 -6 -7 -7 -6 -6 -6 -6 -6 -6 -6 -6 -6 -6 -7 -7 -7 -7 -7 -7 -7 -6 -6 -6 -6
-9 -9 -8 -8 -8 -8 -7 -7 -7 -7 -7 -7 -6 -6 -6 -6 -6 -6 -6 -6 -6 -6 -6 -6 -7 -7 -7 -7 -7 -7 -7 -7 -7 -7 -7 -6 -6 -6 -6 -6 -6 -6 -6 -6 -6 -6 -6 -6 -6 -6 -6 -6 -6 -6 -6 -7 -7 -6 -6 -6 -6 -6 -6
-9 -9 -8 -8 -8 -8 -8 -7 -7 -7 -7 -7 -6 -6 -6 -6 -6 -6 -6 -6 -6 -6 -6 -6 -7 -7 -7 -7 -7 -7 -7 -7 -7 -7 -7 -7 -6 -6 -6 -6 -6 -6 -6 -6 -6 -6 -6 -6 -6 -6 -6 -6 -6 -6 -6 -6 -6 -6 -6 -6 -6 -6 -6
-9 -9 -9 -9 -8 -8 -8 -8 -7 -7 -7 -7 -6 -6 -7 -6 -6 -6 -6 -6 -6 -6 -6 -6 -6 -6 -7 -7 -7 -7 -7 -6 -7 -7 -7 -7 -7 -6 -6 -6 -6 -7 -7 -7 -6 -6 -6 -6 -6 -6 -6 -6 -6 -6 -6 -6 -6 -6 -6 -6 -6 -6 -6
-9 -9 -9 -9 -9 -9 -8 -8 -8 -7 -7 -7 -7 -7 -7 -6 -6 -6 -6 -6 -6 -6 -6 -6 -6 -6 -7 -7 -7 -7 -7 -7 -7 -7 -7 -7 -7 -7 -6 -6 -6 -7 -7 -7 -7 -7 -7 -7 -7 -7 -7 -7 -7 -7 -7 -7 -6 -6 -6 -6 -6 -6 -6
-9 -9 -9 -9 -9 -9 -9 -8 -8 -8 -7 -7 -7 -7 -7 -7 -6 -6 -6 -6 -6 -6 -6 -6 -6 -6 -7 -7 -7 -7 -7 -7 -7 -7 -7 -7 -7 -7 -7 -7 -6 -7 -7 -7 -7 -7 -7 -7 -7 -7 -7 -7 -7 -6 -6 -6 -6 -6 -6 -6 -6 -6 -6
-10 -9 -9 -9 -9 -9 -9 -9 -8 -8 -7 -7 -7 -7 -7 -7 -7 -6 -6 -6 -6 -6 -6 -6 -6 -6 -6 -6 -7 -7 -7 -7 -7 -7 -7 -7 -6 -7 -7 -7 -7 -7 -7 -7 -7 -7 -7 -7 -7 -7 -7 -7 -7 -6 -6 -6 -6 -6 -6 -6 -6 -6 -6
-10 -10 -9 -9 -9 -9 -9 -9 -8 -8 -8 -8 -8 -8 -8 -7 -7 -7 -7 -7 -6 -6 -6 -6 -6 -6 -6 -6 -7 -7 -7 -7 -7 -7 -7 -7 -6 -6 -7 -7 -7 -7 -7 -7 -7 -8 -8 -7 -7 -7 -7 -7 -7 -7 -7 -7 -6 -6 -6 -6 -6 -6 -6
-10 -10 -10 -10 -9 -9 -9 -9 -9 -8 -8 -8 -8 -8 -8 -8 -7 -7 -7 -7 -7 -7 -7 -6 -7 -7 -7 -7 -7 -7 -7 -7 -7 -7 -7 -7 -6 -6 -6 -7 -7 -7 -7 -7 -7 -8 -7 -7 -8 -7 -7 -7 -7 -7 -7 -7 -7 -7 -6 -6 -6 -6 -6
-11 -11 -10 -10 -10 -9 -9 -9 -9 -9 -9 -8 -8 -8 -8 -8 -8 -8 -7 -7 -7 -7 -7 -7 -7 -7 -7 -7 -7 -7 -7 -7 -7 -7 -7 -7 -7 -6 -7 -7 -7 -7 -7 -7 -7 -7 -7 -7 -7 -7 -7 -7 -7 -7 -6 -6 -7 -7 -7 -7 -6 -6 -6
-10 -10 -10 -10 -10 -10 -10 -10 -9 -9 -9 -9 -8 -8 -8 -8 -8 -8 -8 -8 -8 -8 -8 -7 -7 -7 -7 -7 -7 -7 -7 -7 -7 -8 -8 -7 -7 -7 -7 -7 -7 -8 -8 -7 -7 -7 -7 -7 -7 -7 -7 -7 -7 -7 -6 -6 -7 -7 -7 -7 -6 -6 -6
-10 -10 -10 -10 -10 -10 -10 -10 -10 -10 -10 -9 -9 -9 -8 -8 -8 -8 -8 -8 -8 -8 -8 -8 -8 -8 -8 -8 -8 -7 -7 -8 -8 -8 -8 -8 -8 -8 -8 -7 -7 -8 -8 -8 -8 -7 -7 -7 -7 -7 -7 -7 -7 -7 -6 -7 -7 -7 -7 -7 -7 -6 -6
-11 -10 -10 -10 -10 -10 -10 -10 -10 -10 -10 -10 -9 -9 -9 -9 -8 -8 -8 -9 -9 -9 -9 -8 -8 -8 -8 -8 -8 -8 -8 -8 -8 -8 -8 -8 -8 -8 -8 -7 -7 -7 -7 -7 -7 -7 -7 -7 -7 -7 -7 -7 -7 -7 -7 -7 -7 -7 -7 -7 -7 -6 -6
-11 -11 -10 -10 -10 -10 -10 -10 -10 -10 -10 -10 -10 -9 -9 -9 -9 -9 -9 -9 -9 -9 -9 -9 -9 -9 -9 -9 -8 -8 -8 -8 -8 -8 -8 -8 -8 -8 -8 -8 -7 -7 -7 -7 -7 -7 -7 -7 -7 -7 -7 -7 -7 -7 -7 -7 -7 -7 -7 -7 -6 -6 -6
-11 -11 -11 -11 -11 -11 -10 -10 -10 -10 -10 -10 -10 -10 -9 -9 -9 -9 -9 -9 -9 -9 -9 -9 -9 -9 -9 -9 -9 -8 -8 -8 -8 -9 -9 -9 -8 -8 -8 -8 -8 -7 -7 -7 -7 -7 -7 -7 -7 -7 -7 -7 -7 -7 -7 -7 -7 -7 -7 -7 -6 -6 -6
-11 -11 -11 -11 -11 -11 -11 -10 -10 -10 -10 -10 -10 -10 -10 -10 -9 -9 -9 -9 -9 -9 -9 -9 -9 -9 -9 -9 -9 -9 -8 -8 -8 -8 -9 -9 -9 -9 -9 -8 -8 -8 -8 -8 -7 -7 -7 -7 -7 -7 -7 -7 -7 -7 -7 -7 -7 -7 -7 -7 -7 -6 -6
-11 -11 -11 -11 -11 -11 -11 -11 -10 -10 -10 -10 -10 -10 -10 -10 -10 -10 -9 -9 -9 -9 -9 -9 -9 -9 -9 -9 -9 -9 -9 -8 -8 -8 -9 -9 -9 -9 -9 -9 -9 -9 -8 -8 -8 -8 -7 -7 -7 -7 -7 -7 -7 -7 -7 -7 -7 -7 -7 -7 -7 -7 -7
-12 -11 -11 -11 -11 -11 -11 -11 -11 -11 -10 -11 -10 -10 -10 -10 -10 -10 -10 -10 -9 -9 -9 -9 -9 -9 -9 -9 -9 -9 -9 -9 -9 -9 -9 -9 -9 -9 -9 -9 -9 -9 -9 -9 -8 -8 -8 -8 -8 -8 -7 -7 -7 -7 -7 -7 -7 -7 -7 -7 -7 -7 -7
-12 -12 -11 -11 -11 -11 -11 -11 -11 -11 -11 -11 -11 -11 -11 -11 -11 -11 -10 -10 -10 -10 -10 -10 -10 -10 -10 -10 -10 -9 -9 -9 -9 -9 -9 -9 -9 -9 -9 -9 -8 -8 -8 -9 -8 -8 -8 -8 -8 -8 -8 -7 -7 -7 -7 -7 -7 -7 -7 -7 -7 -7 -7
-12 -12 -12 -12 -11 -11 -11 -11 -11 -11 -11 -11 -11 -11 -11 -11 -11 -11 -11 -10 -10 -10 -10 -10 -10 -10 -10 -10 -10 -10 -9 -9 -9 -9 -9 -9 -9 -9 -9 -9 -8 -8 -8 -8 -8 -8 -8 -8 -8 -8 -7 -7 -8 -8 -8 -8 -8 -7 -7 -7 -7 -7 -7
-13 -12 -12 -12 -12 -12 -11 -11 -11 -11 -11 -11 -11 -11 -11 -11 -11 -11 -11 -11 -10 -10 -10 -10 -10 -10 -10 -9 -9 -9 -9 -9 -9 -9 -9 -9 -9 -9 -9 -9 -9 -8 -8 -8 -8 -8 -8 -8 -8 -8 -7 -7 -7 -8 -8 -8 -8 -8 -8 -8 -8 -8 -8
-13 -13 -13 -13 -12 -12 -12 -12 -12 -12 -11 -11 -11 -11 -11 -11 -11 -11 -11 -11 -11 -11 -10 -10 -10 -10 -10 -10 -9 -9 -9 -9 -9 -9 -9 -9 -9 -9 -9 -9 -9 -9 -8 -8 -8 -8 -8 -8 -8 -8 -8 -7 -8 -8 -8 -8 -8 -8 -8 -8 -8 -8 -8
-14 -13 -13 -13 -13 -13 -13 -13 -12 -12 -12 -12 -12 -12 -11 -11 -11 -11 -11 -11 -11 -11 -11 -10 -10 -10 -10 -10 -10 -10 -9 -9 -9 -9 -9 -9 -9 -9 -9 -9 -9 -9 -9 -8 -8 -8 -9 -9 -9 -8 -8 -8 -8 -8 -8 -8 -8 -8 -8 -9 -9 -9 -9
Height
5883 5884 5886 5888 5891 5893 5895 5898 5899 5901 5902 5904 5905 5906 5908 5909 5910 5912 5913 5914 5916 5917 5918 5919 5920 5922 5923 5924 5924 5925 5926 5927 5927 5927 5928 5929 5929 5929 5930 5931 5931 5932 5932 5933 5934 5934 5935 5936 5936 5937 5937 5937 5938 5938 5938 5939 5939 5940 5940 5941 5941 5941 5941
5880 5881 5883 5885 5888 5891 5893 5895 5897 5898 5900 5901 5903 5904 5906 5908 5909 5910 5912 5913 5915 5916 5917 5918 5920 5921 5922 5923 5924 5924 5925 5926 5927 5927 5928 5928 5928 5929 5929 5930 5930 5931 5932 5932 5933 5934 5934 5935 5936 5936 5937 5937 5938 5938 5938 5938 5939 5940 5940 5941 5941 5941 5941
5878 5878 5879 5882 5885 5888 5891 5893 5895 5897 5898 5900 5901 5902 5904 5906 5907 5908 5910 5912 5913 5915 5916 5917 5918 5920 5921 5922 5923 5924 5925 5926 5926 5927 5927 5927 5928 5928 5928 5929 5930 5931 5931 5932 5932 5933 5934 5935 5935 5936 5936 5937 5937 5938 5938 5938 5939 5939 5940 5940 5940 5941 5941
5876 5876 5876 5879 5882 5886 5889 5891 5893 5895 5896 5898 5899 5900 5902 5903 5905 5906 5908 5910 5911 5913 5914 5915 5917 5918 5919 5920 5921 5922 5923 5924 5925 5926 5927 5927 5927 5928 5928 5928 5929 5930 5930 5931 5932 5932 5933 5934 5934 5935 5936 5936 5936 5937 5937 5938 5938 5939 5939 5940 5940 5940 5941
5875 5874 5873 5876 5881 5885 5887 5889 5892 5894 5895 5896 5897 5898 5899 5901 5902 5904 5905 5907 5909 5911 5912 5914 5915 5917 5918 5919 5920 5921 5922 5923 5924 5925 5926 5927 5927 5927 5928 5928 5929 5929 5930 5931 5931 5932 5932 5933 5934 5934 5935 5935 5936 5936 5937 5937 5938 5938 5939 5939 5940 5940 5941
5874 5874 5873 5876 5880 5884 5886 5888 5890 5892 5893 5894 5895 5896 5897 5898 5900 5902 5903 5905 5907 5908 5910 5912 5914 5915 5916 5917 5918 5919 5921 5922 5923 5924 5925 5926 5926 5927 5927 5928 5928 5929 5929 5930 5931 5931 5932 5933 5933 5934 5934 5935 5935 5936 5936 5937 5937 5937 5938 5939 5939 5940 5940
5874 5875 5875 5877 5880 5882 5883 5885 5887 5889 5890 5892 5893 5893 5894 5895 5898 5900 5901 5903 5904 5906 5908 5910 5912 5913 5914 5915 5916 5918 5919 5920 5921 5922 5923 5924 5925 5926 5927 5927 5928 5928 5929 5930 5930 5931 5931 5932 5932 5933 5933 5934 5935 5935 5936 5936 5937 5937 5937 5938 5939 5939 5940
5874 5875 5876 5877 5878 5879 5880 5882 5883 5885 5888 5890 5891 5892 5893 5894 5895 5897 5899 5901 5902 5904 5906 5908 5909 5910 5912 5913 5915 5916 5917 5918 5919 5920 5921 5922 5923 5924 5925 5926 5926 5927 5928 5928 5929 5930 5930 5931 5931 5932 5933 5933 5934 5935 5935 5936 5936 5937 5937 5938 5938 5939 5939
5870 5871 5872 5873 5874 5875 5877 5878 5880 5882 5884 5887 5889 5890 5891 5892 5893 5895 5897 5899 5900 5902 5903 5905 5907 5908 5910 5911 5913 5914 5915 5916 5917 5918 5919 5920 5921 5922 5923 5924 5925 5926 5926 5927 5928 5929 5929 5930 5930 5931 5932 5932 5933 5934 5934 5935 5936 5936 5937 5937 5938 5938 5939
5867 5868 5869 5870 5871 5872 5873 5874 5875 5878 5881 5883 5886 5888 5889 5890 5891 5892 5894 5897 5899 5900 5901 5902 5904 5906 5907 5909 5910 5911 5913 5914 5915 5916 5917 5918 5919 5920 5921 5922 5923 5924 5925 5926 5927 5927 5928 5928 5929 5930 5931 5931 5932 5933 5933 5934 5935 5935 5936 5937 5937 5938 5938
5865 5866 5867 5868 5870 5871 5871 5872 5873 5876 5879 5881 5883 5885 5887 5888 5889 5890 5891 5894 5896 5898 5898 5900 5901 5903 5905 5906 5907 5909 5910 5911 5913 5914 5915 5915 5916 5917 5919 5920 5921 5922 5923 5924 5925 5925 5926 5927 5928 5928 5929 5930 5931 5931 5932 5933 5934 5934 5935 5936 5936 5937 5937
5864 5864 5864 5865 5867 5868 5869 5871 5873 5875 5878 5879 5880 5883 5886 5887 5887 5888 5890 5892 5894 5895 5896 5897 5899 5900 5901 5903 5904 5906 5907 5908 5910 5911 5912 5913 5914 5915 5916 5918 5919 5920 5921 5922 5923 5923 5925 5925 5926 5927 5927 5928 5929 5930 5931 5932 5932 5933 5934 5934 5935 5935 5936
5863 5864 5864 5864 5865 5866 5867 5869 5871 5874 5876 5877 5879 5882 5884 5884 5885 5886 5889 5892 5893 5893 5895 5896 5897 5898 5899 5900 5902 5903 5904 5905 5907 5908 5909 5910 5911 5912 5914 5915 5916 5918 5919 5920 5920 5921 5923 5924 5924 5925 5925 5926 5927 5928 5929 5930 5931 5931 5932 5933 5933 5933 5934
5861 5862 5862 5862 5862 5863 5864 5866 5868 5870 5871 5872 5875 5878 5880 5881 5882 5883 5885 5887 5889 5890 5892 5893 5894 5896 5897 5899 5900 5900 5901 5903 5904 5905 5906 5907 5909 5910 5911 5913 5914 5915 5917 5918 5919 5919 5920 5921 5922 5923 5923 5924 5925 5926 5927 5928 5928 5929 5930 5930 5931 5931 5932
5857 5858 5859 5859 5860 5861 5862 5863 5864 5866 5867 5868 5870 5873 5875 5877 5878 5879 5881 5883 5884 5885 5887 5888 5889 5891 5893 5895 5897 5899 5899 5900 5901 5901 5902 5904 5905 5907 5909 5910 5911 5912 5914 5915 5916 5917 5917 5918 5919 5921 5921 5922 5922 5923 5925 5926 5926 5926 5927 5928 5928 5929 5930
5855 5855 5856 5857 5858 5859 5860 5861 5862 5863 5865 5866 5867 5868 5870 5872 5873 5875 5877 5878 5878 5880 5882 5882 5884 5886 5888 5890 5892 5894 5896 5897 5898 5899 5899 5900 5902 5903 5905 5906 5907 5909 5910 5911 5913 5913 5914 5915 5916 5917 5918 5919 5920 5921 5922 5923 5923 5923 5924 5925 5926 5927 5927
5853 5853 5853 5854 5856 5857 5858 5859 5859 5860 5862 5863 5865 5866 5867 5868 5870 5871 5872 5873 5874 5875 5876 5878 5879 5881 5883 5885 5887 5888 5891 5894 5895 5895 5896 5897 5898 5899 5901 5903 5904 5905 5906 5907 5909 5910 5911 5912 5913 5914 5915 5916 5917 5918 5919 5919 5920 5920 5921 5923 5923 5924 5925
5852 5852 5852 5852 5853 5854 5855 5856 5857 5858 5859 5861 5863 5863 5864 5866 5867 5867 5869 5870 5870 5871 5873 5874 5875 5877 5879 5881 5883 5884 5886 5888 5890 5890 5891 5893 5895 5897 5898 5900 5902 5903 5904 5905 5906 5906 5907 5909 5910 5911 5912 5913 5914 5915 5916 5916 5917 5917 5918 5919 5920 5921 5921
5850 5851 5851 5851 5851 5851 5853 5854 5855 5856 5858 5859 5860 5861 5862 5863 5863 5864 5866 5866 5867 5868 5870 5870 5871 5873 5874 5876 5879 5881 5882 5884 5885 5886 5887 5889 5893 5895 5896 5897 5897 5898 5900 5902 5904 5905 5906 5907 5908 5908 5909 5910 5911 5913 5914 5914 5914 5915 5915 5916 5916 5917 5918
5848 5849 5849 5850 5850 5850 5851 5851 5852 5854 5856 5857 5858 5859 5859 5859 5859 5860 5861 5862 5863 5864 5865 5866 5868 5868 5869 5871 5875 5879 5879 5879 5882 5883 5884 5887 5890 5890 5892 5893 5894 5894 5895 5897 5900 5902 5903 5904 5905 5905 5906 5906 5907 5908 5910 5910 5911 5911 5912 5912 5913 5914 5915
5845 5847 5847 5847 5848 5848 5848 5849 5850 5852 5853 5854 5856 5857 5856 5855 5855 5855 5856 5857 5858 5859 5860 5863 5865 5865 5866 5868 5871 5874 5874 5876 5878 5880 5883 5886 5887 5886 5887 5889 5890 5891 5892 5893 5896 5898 5899 5900 5901 5902 5903 5903 5904 5904 5905 5906 5906 5907 5907 5908 5909 5910 5911
5841 5844 5845 5845 5845 5845 5846 5846 5847 5849 5850 5852 5853 5853 5852 5851 5851 5850 5851 5853 5854 5855 5856 5858 5860 5862 5864 5866 5867 5868 5870 5872 5875 5877 5879 5882 5883 5883 5883 5884 5886 5888 5890 5891 5892 5894 5895 5896 5897 5898 5899 5900 5901 5902 5903 5903 5903 5903 5904 5904 5905 5907 5908
5838 5840 5842 5843 5842 5842 5843 5843 5844 5846 5847 5849 5849 5848 5848 5848 5848 5848 5848 5850 5851 5852 5853 5854 5856 5858 5860 5862 5863 5865 5867 5869 5871 5873 5875 5877 5878 5879 5879 5880 5882 5884 5886 5887 5888 5890 5891 5892 5892 5893 5894 5895 5897 5899 5900 5901 5902 5902 5902 5902 5903 5904 5904
5835 5836 5839 5841 5841 5841 5840 5841 5841 5843 5844 5846 5846 5846 5846 5846 5846 5847 5848 5848 5849 5850 5850 5851 5852 5854 5856 5857 5860 5862 5864 5866 5867 5869 5871 5872 5873 5875 5876 5877 5878 5879 5881 5882 5883 5885 5886 5887 5888 5888 5889 5892 5894 5895 5896 5898 5898 5899 5899 5899 5900 5900 5901
5832 5833 5835 5837 5839 5839 5839 5838 5838 5839 5841 5843 5844 5845 5844 5843 5844 5845 5846 5847 5847 5848 5848 5848 5849 5851 5852 5854 5856 5858 5860 5862 5863 5865 5867 5868 5868 5871 5873 5874 5874 5875 5876 5878 5879 5881 5882 5883 5885 5886 5887 5889 5890 5890 5891 5893 5894 5894 5894 5895 5895 5896 5897
5829 5830 5832 5833 5836 5837 5837 5837 5836 5836 5837 5839 5841 5842 5843 5842 5842 5843 5844 5845 5846 5846 5847 5847 5847 5848 5849 5851 5852 5853 5856 5859 5860 5861 5862 5863 5864 5867 5869 5870 5871 5871 5872 5874 5876 5877 5878 5879 5881 5883 5883 5885 5886 5886 5887 5888 5889 5890 5890 5890 5890 5891 5891
5825 5826 5828 5829 5831 5833 5834 5835 5835 5834 5834 5835 5837 5839 5840 5840 5840 5840 5841 5842 5843 5844 5845 5846 5845 5846 5848 5849 5849 5850 5853 5855 5856 5856 5858 5860 5861 5863 5865 5867 5867 5869 5870 5871 5872 5874 5875 5875 5876 5878 5879 5880 5881 5882 5882 5883 5884 5885 5885 5885 5885 5885 5886
5821 5822 5824 5825 5826 5828 5830 5832 5832 5832 5832 5832 5834 5836 5837 5837 5837 5837 5837 5839 5840 5841 5843 5844 5844 5845 5847 5848 5848 5849 5851 5852 5853 5854 5855 5857 5859 5860 5862 5863 5864 5865 5867 5868 5869 5870 5871 5872 5872 5873 5874 5875 5877 5877 5878 5878 5879 5879 5880 5880 5880 5881 5882
5817 5819 5820 5821 5822 5824 5825 5827 5829 5829 5829 5829 5830 5832 5833 5834 5834 5834 5834 5835 5837 5839 5840 5841 5842 5843 5844 5846 5846 5847 5849 5850 5851 5851 5852 5854 5856 5858 5859 5860 5861 5862 5863 5864 5865 5867 5867 5868 5869 5869 5870 5871 5873 5874 5874 5874 5874 5875 5875 5876 5876 5877 5878
5814 5815 5816 5817 5818 5819 5821 5822 5824 5825 5826 5826 5827 5828 5829 5831 5832 5831 5831 5832 5833 5835 5837 5839 5840 5840 5842 5843 5844 5844 5846 5847 5848 5849 5850 5852 5853 5854 5856 5857 5858 5859 5860 5860 5861 5862 5863 5864 5865 5865 5865 5867 5869 5871 5871 5870 5870 5871 5872 5872 5872 5873 5874
5811 5812 5813 5814 5815 5816 5817 5818 5819 5820 5822 5823 5823 5824 5825 5827 5828 5828 5828 5828 5829 5830 5832 5835 5836 5837 5838 5840 5841 5841 5842 5843 5844 5845 5846 5848 5849 5850 5851 5853 5854 5855 5856 5857 5858 5858 5859 5859 5860 5861 5861 5862 5864 5865 5866 5865 5866 5867 5867 5868 5869 5869 5870
5808 5809 5810 5810 5811 5812 5813 5814 5815 5816 5817 5818 5819 5820 5821 5822 5824 5825 5825 5825 5825 5826 5827 5829 5831 5832 5834 5835 5837 5838 5838 5839 5840 5841 5842 5844 5845 5845 5846 5848 5849 5851 5852 5853 5854 5855 5855 5855 5856 5857 5857 5857 5858 5859 5860 5861 5862 5863 5864 5864 5865 5865 5866
5804 5805 5806 5807 5808 5809 5810 5811 5812 5812 5813 5814 5815 5816 5817 5818 5819 5820 5822 5822 5822 5823 5823 5825 5826 5828 5829 5830 5832 5833 5834 5835 5835 5836 5838 5839 5841 5841 5842 5843 5844 5845 5847 5848 5849 5850 5851 5852 5852 5853 5853 5853 5853 5855 5856 5857 5858 5859 5860 5861 5862 5862 5862
5800 5801 5802 5803 5804 5805 5806 5807 5808 5809 5809 5810 5811 5812 5813 5814 5815 5816 5817 5818 5820 5820 5820 5821 5822 5823 5824 5825 5827 5828 5830 5830 5831 5832 5833 5834 5835 5837 5838 5839 5839 5840 5841 5842 5843 5845 5846 5847 5848 5848 5848 5849 5849 5850 5850 5851 5853 5855 5856 5857 5858 5858 5858
5796 5797 5798 5799 5800 5801 5801 5802 5803 5804 5805 5805 5806 5806 5808 5809 5810 5811 5812 5814 5815 5816 5817 5817 5817 5818 5819 5821 5822 5823 5824 5825 5826 5827 5828 5829 5830 5831 5832 5833 5834 5835 5836 5836 5837 5839 5839 5840 5841 5842 5843 5844 5845 5845 5845 5846 5847 5849 5850 5852 5853 5853 5854
5792 5793 5795 5795 5796 5796 5797 5797 5798 5799 5800 5800 5801 5801 5802 5803 5805 5806 5807 5808 5809 5811 5812 5812 5812 5812 5813 5814 5816 5818 5819 5820 5821 5821 5822 5823 5824 5825 5825 5827 5828 5829 5830 5830 5831 5832 5833 5834 5834 5835 5836 5838 5840 5840 5840 5840 5842 5843 5844 5845 5846 5847 5848
5789 5789 5790 5791 5792 5792 5792 5792 5793 5793 5794 5795 5795 5796 5797 5798 5799 5800 5801 5802 5803 5804 5805 5806 5807 5807 5807 5808 5809 5811 5812 5814 5815 5816 5817 5817 5818 5819 5819 5820 5822 5823 5824 5824 5825 5825 5827 5828 5828 5829 5830 5832 5833 5833 5834 5835 5836 5837 5838 5839 5840 5841 5841
5786 5786 5786 5787 5787 5788 5788 5788 5788 5789 5789 5789 5790 5791 5791 5792 5793 5793 5794 5795 5796 5797 5798 5800 5801 5801 5801 5801 5802 5803 5805 5806 5808 5809 5810 5811 5812 5813 5813 5814 5815 5817 5818 5818 5818 5819 5820 5821 5822 5823 5824 5825 5826 5827 5828 5829 5831 5831 5832 5833 5834 5835 5835
Wind_Speed
10 14 22 29 29 26 25 23 22 21 20 19 18 17 17 16 16 16 16 17 18 18 18 18 18 17 16 15 14 13 13 13 13 13 13 12 12 11 11 11 11 11 11 11 10 10 9 9 8 8 8 8 8 8 8 7 6 6 6 6 6 6 6
11 11 18 28 31 28 26 26 24 23 22 21 20 19 18 17 16 16 17 17 18 19 19 18 18 18 17 16 15 15 14 13 13 13 13 13 13 12 11 11 11 11 11 11 10 10 10 10 9 9 9 8 8 8 8 8 8 7 7 6 6 6 6
12 12 15 26 31 30 27 27 25 24 23 22 21 20 19 19 18 17 17 18 18 19 19 18 18 18 18 17 16 16 14 14 14 14 14 13 13 12 11 11 11 10 11 11 11 11 11 11 10 10 10 10 9 9 9 8 8 7 7 7 7 7 7
12 12 16 26 31 30 28 27 26 24 24 23 22 21 21 21 20 20 18 18 18 19 19 20 20 19 19 18 18 17 16 16 15 14 13 13 12 12 11 11 11 11 11 11 12 12 12 12 11 11 11 11 11 11 10 9 8 8 8 8 8 8 7
10 10 16 25 29 28 27 26 24 23 24 24 24 23 22 22 22 21 20 19 19 19 20 20 20 20 20 19 18 18 17 17 16 15 13 13 13 12 12 12 11 11 11 11 12 12 12 12 12 11 11 11 11 11 11 10 9 9 8 8 8 8 8
9 7 13 22 26 26 25 24 24 23 24 25 25 25 24 23 22 22 22 21 21 20 20 20 20 21 20 20 20 19 19 18 17 16 15 14 14 13 13 12 11 11 11 11 11 11 12 13 12 12 11 11 10 10 10 10 9 9 9 8 8 8 8
11 11 15 19 22 23 24 25 25 25 25 26 27 27 27 25 23 23 23 22 22 22 21 21 22 23 23 22 22 21 20 20 19 18 17 16 15 14 13 13 13 12 12 11 11 11 12 12 12 12 11 10 10 10 10 10 9 9 9 9 9 9 8
12 13 15 18 19 21 23 26 28 29 27 26 27 27 27 25 24 23 23 22 22 22 22 23 23 24 25 24 24 24 23 22 21 20 19 18 17 16 15 15 15 14 14 13 13 13 13 13 12 12 12 11 10 10 10 10 10 10 10 10 10 10 9
16 17 19 21 21 22 22 24 27 30 30 28 27 28 28 27 25 24 23 22 22 21 22 23 25 25 26 25 25 25 25 24 24 23 22 21 20 19 18 18 18 17 17 16 15 15 14 14 14 13 13 12 11 11 11 11 11 11 10 10 10 10 10
19 19 20 20 20 20 21 23 27 31 31 29 28 28 29 29 27 26 24 23 21 21 22 23 25 27 27 27 27 26 26 25 25 25 24 24 24 22 22 21 20 20 19 18 18 17 17 16 16 15 14 13 13 13 12 12 12 11 11 10 11 11 11
22 21 22 21 20 19 20 23 28 30 32 33 31 30 30 30 29 28 26 25 23 23 25 25 25 27 28 29 28 28 27 27 27 26 26 26 26 25 24 23 22 22 21 21 20 20 19 19 18 17 16 16 15 14 14 13 13 12 12 12 12 12 12
25 24 25 25 23 22 23 25 28 30 33 37 36 34 33 32 32 31 28 26 26 26 27 28 27 27 28 29 29 29 29 29 28 28 28 28 27 26 25 25 24 24 23 22 22 22 21 21 20 19 19 18 17 17 16 15 15 14 14 13 13 13 13
25 24 25 27 25 25 27 28 31 33 34 37 37 35 35 35 35 34 30 28 30 31 29 28 28 28 28 28 29 30 30 30 30 30 30 30 30 28 27 26 25 25 24 24 24 23 23 22 22 22 21 20 20 19 19 18 17 17 16 16 16 15 15
24 22 24 28 28 27 28 29 30 32 34 36 36 36 36 37 37 36 32 30 33 35 34 31 30 29 28 27 28 29 29 29 30 31 31 31 31 30 28 28 27 26 25 25 25 24 24 24 24 24 23 22 22 22 21 20 20 20 19 19 19 18 17
22 20 22 26 28 28 29 29 29 30 30 32 33 34 36 38 38 37 35 34 34 36 38 36 34 31 29 29 29 28 28 28 28 30 30 31 31 31 30 29 28 28 27 26 26 26 26 26 25 25 25 25 25 24 23 22 23 23 22 22 21 20 19
20 20 21 23 25 27 28 29 29 29 29 29 31 34 36 38 38 38 38 38 38 37 39 40 38 33 33 33 32 29 28 27 27 28 29 30 30 30 30 30 30 29 28 28 29 29 29 28 27 26 27 27 27 26 25 25 25 26 25 24 23 22 21
19 20 22 23 24 24 26 27 28 29 30 29 30 33 34 35 37 38 39 41 42 39 38 40 41 37 35 36 35 32 30 29 29 29 29 29 29 29 29 29 29 30 30 31 31 31 31 31 29 29 29 29 28 28 27 27 27 27 26 25 24 24 23
20 20 20 22 24 24 23 24 26 29 31 30 31 33 33 34 35 37 39 42 44 42 38 39 41 40 38 38 37 35 34 33 32 32 31 30 30 29 27 26 27 28 29 30 31 32 33 32 30 30 30 30 29 29 28 28 28 28 27 26 26 26 25
23 21 20 20 21 22 22 22 25 28 30 31 31 32 32 32 33 34 36 38 42 43 41 40 41 40 40 41 40 37 36 35 34 33 33 33 32 30 27 26 27 27 27 28 29 31 31 30 30 29 29 29 29 29 28 29 29 29 28 28 27 27 27
27 25 24 22 21 21 22 22 24 27 28 29 30 30 29 30 31 31 31 32 35 38 41 41 40 40 41 41 39 37 36 35 34 33 34 34 33 31 29 28 28 28 28 28 29 29 29 29 29 29 29 29 29 29 29 29 29 29 29 28 29 28 28
31 29 28 26 23 22 23 24 25 25 26 26 28 29 29 28 28 29 29 28 29 32 36 38 38 38 38 38 39 40 38 36 34 34 33 32 31 31 30 30 31 30 29 29 29 29 29 28 27 27 28 29 29 29 29 29 29 29 28 28 28 28 28
32 31 31 31 27 24 23 25 26 26 25 24 24 27 29 28 27 28 28 25 25 27 32 35 35 34 32 33 37 40 38 35 35 36 36 34 33 33 32 32 33 32 31 29 29 31 30 28 27 27 28 29 29 29 29 29 28 28 28 28 28 28 27
30 29 30 32 31 28 26 26 27 27 27 27 25 24 26 26 25 26 26 24 24 24 28 32 32 30 29 30 33 35 35 35 35 36 36 36 35 36 35 34 35 35 34 33 32 32 32 31 30 30 30 29 28 28 28 29 28 28 28 28 28 28 27
28 27 28 29 30 29 28 27 28 28 28 29 27 25 25 27 26 25 23 23 22 20 23 28 28 26 26 27 29 30 30 30 31 33 33 32 31 32 34 34 35 37 38 37 35 34 35 34 34 34 33 31 30 30 31 30 30 30 30 29 29 29 30
32 31 30 29 28 28 28 27 29 30 30 30 29 27 26 28 28 26 24 22 19 16 17 21 22 21 21 24 27 27 26 26 28 29 29 28 26 27 29 30 31 33 36 37 36 35 35 36 36 36 35 33 33 34 35 34 34 34 33 33 33 33 33
39 38 37 35 32 31 30 28 27 29 30 30 30 30 28 27 27 26 26 25 22 18 15 15 16 18 19 21 24 24 23 24 24 24 25 26 25 24 25 25 25 26 28 29 30 30 31 33 35 36 36 36 36 36 37 36 36 37 36 36 36 37 36
42 42 41 39 35 33 32 31 30 29 29 28 29 30 31 31 29 28 26 25 23 21 19 18 17 17 17 19 21 22 22 22 21 20 23 25 23 22 24 25 24 24 24 25 25 25 25 27 29 31 33 35 36 37 37 37 37 37 37 37 38 39 38
38 39 40 40 38 34 32 32 32 32 32 31 29 28 29 31 32 32 30 28 25 23 23 24 23 21 19 19 21 23 24 24 21 19 21 22 21 20 21 23 24 24 24 24 24 23 23 24 24 24 25 27 29 31 32 33 32 32 33 34 36 37 37
34 35 36 37 37 34 31 30 31 32 33 33 32 31 30 30 32 34 35 34 32 28 26 25 25 24 23 23 24 25 26 26 24 21 20 21 21 20 20 22 23 24 24 24 24 24 24 24 24 23 23 24 25 26 27 28 28 28 28 29 30 31 31
31 31 31 32 33 33 31 30 30 31 32 33 33 32 31 31 32 34 36 37 36 35 32 28 26 26 25 25 26 28 28 28 28 27 26 25 25 24 24 25 26 27 28 29 29 29 29 28 28 28 28 28 27 28 28 29 29 29 28 28 28 28 28
28 28 29 29 30 31 31 31 30 30 30 32 32 32 31 31 31 33 35 37 37 37 36 34 33 33 33 32 31 32 33 33 34 33 32 31 30 29 28 28 28 30 31 32 32 32 32 32 31 31 31 31 31 31 31 31 31 31 31 31 31 30 29
26 27 28 29 30 30 30 31 31 31 30 31 32 33 32 32 31 32 33 35 36 36 36 36 36 37 38 37 36 37 39 39 40 40 38 35 33 31 30 29 29 31 32 33 34 33 33 33 33 33 34 34 33 33 33 33 33 33 33 32 31 30 30
24 25 27 28 30 30 30 30 31 32 32 32 32 33 33 34 33 33 32 34 35 36 36 36 36 37 37 37 36 37 38 40 41 42 41 38 35 34 32 32 32 33 34 34 35 35 36 36 36 36 36 37 36 35 34 34 34 34 34 33 32 31 32
23 24 25 27 28 29 30 30 31 31 33 34 34 34 34 35 36 36 35 35 35 36 36 36 36 37 37 38 37 37 38 39 40 41 42 41 39 37 36 35 35 36 36 37 37 37 37 39 39 39 39 39 38 37 37 36 35 35 35 35 35 35 36
22 23 24 26 27 29 30 30 31 31 33 34 36 36 37 37 38 38 38 38 38 38 38 39 39 39 39 39 39 39 39 40 41 42 42 42 41 40 39 38 38 38 38 39 39 38 39 40 40 41 42 40 38 37 37 37 36 37 38 38 39 40 39
21 21 23 24 26 27 29 30 31 32 33 34 36 37 38 38 39 39 40 40 40 40 40 40 41 42 42 41 41 41 41 42 42 43 43 44 43 43 42 41 40 40 40 41 41 40 41 42 42 42 43 42 40 39 38 37 37 37 37 38 40 41 41
20 21 21 22 23 25 27 29 30 31 33 34 35 36 37 38 39 40 40 41 41 42 42 42 42 43 43 43 42 42 42 43 43 44 44 45 45 45 45 45 44 43 43 43 43 43 43 44 45 45 45 45 44 43 41 40 39 37 36 36 37 40 42
20 21 21 22 23 24 25 27 28 30 31 32 34 35 36 37 38 39 40 41 41 42 43 43 44 45 45 45 45 45 44 44 44 45 45 45 46 46 47 47 46 46 45 45 46 46 45 45 46 47 47 47 48 47 46 45 44 43 41 39 37 38 40
Wind_Direction
218 223 217 215 213 211 213 210 207 211 208 202 202 199 199 201 199 197 194 191 193 197 196 195 197 201 202 199 199 204 206 206 203 196 194 194 193 194 196 194 191 190 190 189 187 184 184 188 190 189 189 188 186 183 182 184 184 180 181 183 184 186 188
237 238 219 213 212 208 211 211 207 209 209 204 202 200 198 201 201 199 198 195 194 198 200 200 200 202 203 201 201 204 205 208 209 204 201 199 198 200 202 200 199 199 198 197 195 192 193 197 198 200 205 206 204 202 198 195 192 191 192 189 187 194 195
244 247 222 211 209 204 207 212 208 208 210 206 205 204 200 200 203 204 201 199 197 198 201 203 204 204 204 202 203 204 202 204 209 209 206 205 203 203 204 203 204 205 206 205 202 201 203 206 207 207 211 214 215 213 210 208 205 202 202 201 198 201 204
244 243 215 206 204 199 203 210 209 208 209 208 208 209 206 203 205 207 204 201 201 200 201 204 206 206 205 203 203 203 201 201 205 209 209 207 206 205 204 205 207 210 211 210 209 210 210 212 214 213 214 217 219 217 213 213 216 215 211 209 208 209 213
237 234 205 198 196 193 199 207 208 208 208 209 210 212 213 210 207 209 207 203 202 203 204 206 208 208 206 204 203 202 202 201 203 206 208 209 208 206 204 204 207 210 213 213 213 217 217 216 217 217 218 220 222 222 219 215 215 218 218 217 216 216 217
214 200 183 186 190 193 199 205 209 210 208 209 211 213 217 218 213 211 212 208 205 206 208 208 209 210 208 206 204 203 202 202 202 204 206 210 213 212 209 207 207 207 211 214 214 216 218 218 219 220 222 223 224 225 227 226 221 217 217 219 222 224 223
204 192 180 184 191 196 200 205 210 212 210 209 210 213 218 220 216 213 215 216 213 211 211 211 210 211 210 209 206 204 203 202 203 204 205 209 215 218 217 215 213 210 210 212 213 216 219 221 223 225 228 229 228 228 231 236 234 227 222 220 222 227 229
204 201 198 199 201 201 203 207 212 214 213 210 210 214 220 223 222 217 216 219 220 219 218 216 214 213 212 212 210 208 206 205 205 206 207 211 215 219 221 223 221 218 216 214 214 218 223 225 228 230 232 234 234 234 236 239 241 239 235 232 229 230 231
205 204 204 206 207 208 207 207 210 212 212 211 209 212 218 224 228 227 223 222 223 225 225 223 220 217 215 215 214 212 211 209 209 210 210 213 216 219 222 225 226 223 222 219 218 219 222 227 232 234 235 236 236 238 240 241 243 243 243 243 243 241 239
214 213 214 214 210 211 211 206 206 207 208 212 212 212 217 221 226 231 232 230 228 230 232 230 227 223 219 217 217 216 215 213 213 213 213 214 216 218 220 224 227 227 226 224 222 221 222 225 231 235 237 237 236 238 242 244 246 247 247 247 248 248 248
221 219 221 224 219 218 218 213 213 213 211 214 216 217 220 222 225 229 232 233 231 231 234 235 233 228 224 221 219 218 218 217 216 216 216 217 217 218 219 222 225 228 229 228 226 225 224 225 228 231 234 236 237 239 241 245 248 250 250 249 249 251 251
230 225 224 226 226 226 224 221 224 224 219 217 218 219 221 224 227 229 231 235 233 231 234 235 235 232 228 225 223 221 220 220 219 219 219 220 219 219 219 221 224 227 228 229 229 229 227 227 227 229 230 233 236 239 242 245 247 248 249 249 249 249 250
237 237 231 230 232 232 229 225 227 229 228 225 223 222 223 227 229 228 230 236 233 230 233 235 236 238 235 230 228 225 224 224 223 222 223 224 224 222 220 221 223 225 228 229 230 230 231 230 230 229 230 231 233 236 239 243 247 248 249 249 249 249 249
238 240 232 227 230 234 235 232 229 229 232 232 229 227 229 232 232 229 228 233 233 230 230 230 232 238 239 237 235 233 229 228 226 225 225 226 227 226 224 224 224 225 228 229 230 230 231 232 232 232 232 233 234 236 237 240 244 246 247 248 250 250 251
241 245 235 228 228 232 237 240 237 232 233 234 230 228 231 234 235 234 230 230 231 231 230 229 228 231 233 233 237 240 238 233 230 228 227 226 227 227 226 226 226 227 228 229 230 230 230 231 233 233 234 235 236 237 238 239 241 243 244 245 247 249 251
248 253 246 235 230 232 237 241 240 235 233 234 231 230 232 234 236 237 235 232 231 229 228 228 228 227 226 225 228 235 238 236 235 233 231 228 226 226 226 226 226 227 227 229 231 231 230 230 231 233 234 235 236 237 238 238 240 241 243 245 247 248 249
250 256 252 243 235 234 238 239 237 234 234 236 234 234 236 237 238 239 239 238 235 229 225 226 228 227 226 224 225 230 233 233 235 235 235 233 228 226 227 228 228 227 227 228 230 231 232 231 230 231 233 235 236 237 238 240 241 243 245 247 248 249 250
245 249 250 247 242 240 242 245 243 239 239 241 239 238 240 241 242 243 243 242 240 234 227 225 228 229 227 225 226 229 230 230 231 232 231 231 231 231 231 231 232 232 232 232 232 233 234 234 233 233 234 237 238 238 239 240 242 244 246 247 248 249 251
244 245 248 250 252 250 248 251 251 246 244 244 243 243 245 248 249 249 248 248 246 241 234 229 229 230 229 226 226 229 231 231 231 231 229 226 226 229 233 233 232 232 234 237 238 238 238 238 238 238 238 240 241 241 242 242 243 244 245 247 248 250 251
248 246 250 254 259 259 254 252 251 248 245 245 246 248 250 252 253 253 254 254 251 245 239 234 232 230 228 226 226 230 233 233 231 231 231 228 223 222 227 232 232 227 225 230 237 240 239 237 237 237 237 238 239 239 240 241 243 245 246 248 250 251 252
252 249 251 256 261 263 260 257 252 247 245 246 248 249 251 255 257 256 257 257 254 246 238 233 233 231 227 224 225 227 231 233 231 231 232 233 228 221 222 229 233 228 223 226 234 238 238 237 237 236 236 235 236 236 236 236 237 240 243 246 248 250 252
254 252 251 255 260 262 261 259 256 251 248 249 250 248 247 253 258 257 256 257 256 246 232 226 229 233 233 228 225 226 230 233 233 232 235 238 236 229 225 227 231 232 228 227 231 236 238 238 238 238 238 238 238 239 239 239 239 239 239 240 243 246 249
251 251 249 252 257 260 258 257 257 254 251 251 255 253 248 249 255 259 259 258 255 247 236 230 229 229 232 230 225 226 230 232 232 233 239 243 240 234 231 230 230 231 231 229 229 232 236 238 239 238 238 238 239 241 243 246 247 247 245 243 243 244 245
248 248 246 247 252 257 259 257 256 255 253 252 255 257 254 252 254 259 261 259 257 251 243 238 233 228 226 225 222 221 224 226 228 232 238 242 238 236 238 237 234 234 235 236 234 231 232 236 239 241 242 242 243 244 245 248 251 251 250 249 248 247 247
251 252 252 250 251 255 259 261 259 258 257 254 254 256 256 256 257 257 257 258 260 258 246 237 233 229 221 217 217 218 219 225 231 232 234 235 234 234 237 236 234 235 237 239 240 238 237 237 237 240 244 246 247 247 248 250 251 252 253 253 254 254 253
255 256 256 257 257 257 258 261 263 263 262 259 256 255 255 258 259 258 256 256 258 256 249 238 232 229 223 215 213 214 217 225 233 234 233 233 233 233 233 232 231 233 235 237 239 241 243 242 240 241 245 247 249 250 251 251 251 252 254 255 257 258 258
259 257 257 258 260 260 259 259 261 265 267 264 260 256 255 255 258 258 256 255 254 252 248 245 242 238 233 226 221 221 220 221 227 232 231 230 232 235 235 233 232 233 234 236 238 239 241 242 242 243 245 247 249 250 252 253 254 254 255 256 257 258 259
262 259 258 259 261 262 262 260 258 259 264 266 264 260 257 255 256 258 258 258 258 257 254 253 253 252 249 241 234 229 221 216 221 234 234 232 235 239 238 238 238 238 237 238 238 239 241 242 244 246 247 248 249 250 251 253 254 254 256 256 256 256 258
264 263 261 261 261 262 263 263 259 256 259 263 264 263 260 258 256 258 259 260 260 260 258 255 254 253 251 245 238 233 225 220 226 237 240 239 244 248 250 252 252 249 247 245 244 243 244 247 252 254 254 254 254 255 255 253 252 253 256 257 255 254 256
264 265 264 263 262 262 263 263 261 256 256 258 261 261 259 258 256 256 258 259 259 259 257 254 251 251 251 248 244 243 241 239 241 247 251 254 258 260 260 261 259 257 256 255 253 252 251 251 253 256 256 255 255 256 257 256 255 255 257 257 255 254 255
261 262 263 262 261 261 261 261 261 259 256 255 256 256 256 254 253 254 256 258 260 260 258 255 253 254 257 257 255 255 254 254 255 259 262 264 266 267 264 261 258 258 258 258 257 257 256 254 253 252 253 253 252 253 254 256 257 257 256 256 256 256 256
256 257 258 259 259 259 259 259 260 260 259 256 255 254 254 253 252 251 253 256 259 261 262 260 258 259 261 262 260 259 260 260 261 263 265 265 266 266 265 263 259 258 257 258 257 257 256 256 255 253 253 253 252 252 254 255 257 259 258 257 256 256 257
254 254 254 256 257 258 258 258 258 259 260 259 257 255 255 254 253 252 251 253 256 259 262 263 262 262 263 263 262 260 260 261 261 262 263 263 262 261 260 259 258 257 257 257 257 256 256 255 254 254 254 255 254 255 255 255 256 258 258 255 254 256 260
249 250 251 252 254 255 256 256 255 255 256 257 257 256 255 255 254 254 253 253 254 257 260 262 262 262 262 263 263 261 260 260 261 262 263 263 263 261 259 257 256 256 256 255 255 255 256 255 254 252 252 252 254 255 256 256 256 256 255 255 255 258 261
248 247 247 248 249 251 253 253 252 251 251 252 253 253 253 253 253 254 254 255 255 255 257 259 260 260 260 261 261 261 261 260 261 262 263 263 264 263 261 259 257 256 255 255 254 253 253 255 255 253 251 250 251 254 256 257 255 255 254 255 256 259 261
253 251 249 248 248 248 249 250 250 249 248 248 249 250 251 251 251 252 253 254 254 253 254 255 257 259 259 259 259 260 260 260 260 260 261 262 263 263 263 261 259 257 256 255 255 254 252 253 254 254 254 252 250 250 253 255 255 255 255 256 256 257 258
257 256 254 252 250 249 249 249 250 250 249 248 248 248 249 250 250 251 251 251 252 252 252 253 254 256 258 259 260 260 260 259 259 259 259 260 260 261 261 261 260 259 257 256 256 255 254 253 253 254 254 253 252 251 251 251 251 252 253 256 257 258 257
255 256 256 255 254 252 251 251 251 251 252 252 251 250 250 250 251 251 251 251 251 251 251 252 252 253 255 257 258 259 259 259 259 259 259 259 259 259 260 260 260 259 258 257 256 255 254 254 255 255 255 253 253 253 253 252 251 251 252 255 257 258 258